| time (UTC) | temp C | wind direction | speed KPH | gust KPH | rain 1hr cm | rain 24hr cm | rain mn cm | humidity % | barometer mb |
| 20260507023043 | 14 | 63 | 3.2 | 6.4 | 0.00 | 0.00 | 0.00 | 62 | 1017.3 |
| 20260507022528 | 14 | 63 | 1.6 | 6.4 | 0.00 | 0.00 | 0.00 | 62 | 1017.3 |
| 20260507022026 | 14 | 63 | 3.2 | 6.4 | 0.00 | 0.00 | 0.00 | 62 | 1017.2 |
| 20260507021540 | 14 | 63 | 1.6 | 6.4 | 0.00 | 0.00 | 0.00 | 62 | 1017.0 |
| 20260507021031 | 14 | 63 | 1.6 | 6.4 | 0.00 | 0.00 | 0.00 | 61 | 1017.0 |
| 20260507020528 | 15 | 63 | 3.2 | 11.3 | 0.00 | 0.00 | 0.00 | 61 | 1016.9 |
| 20260507020039 | 15 | 63 | 3.2 | 11.3 | 0.00 | 0.00 | 0.00 | 60 | 1016.8 |
| 20260507015527 | 15 | 82 | 3.2 | 12.9 | 0.00 | 0.00 | 0.00 | 60 | 1016.7 |
| 20260507015031 | 15 | 82 | 6.4 | 12.9 | 0.00 | 0.00 | 0.00 | 59 | 1016.7 |
| 20260507014550 | 15 | 67 | 4.8 | 16.1 | 0.00 | 0.00 | 0.00 | 59 | 1016.7 |
| 20260507014031 | 15 | 65 | 6.4 | 19.3 | 0.00 | 0.00 | 0.00 | 58 | 1016.5 |
| 20260507013528 | 15 | 58 | 8.0 | 19.3 | 0.00 | 0.00 | 0.00 | 56 | 1016.4 |
| 20260507013045 | 15 | 32 | 6.4 | 17.7 | 0.00 | 0.00 | 0.00 | 54 | 1016.2 |
| 20260507012528 | 15 | 53 | 8.0 | 17.7 | 0.00 | 0.00 | 0.00 | 54 | 1016.2 |
| 20260507012030 | 16 | 24 | 9.7 | 17.7 | 0.00 | 0.00 | 0.00 | 53 | 1016.2 |
| 20260507011540 | 16 | 38 | 8.0 | 16.1 | 0.00 | 0.00 | 0.00 | 53 | 1016.1 |
| 20260507011028 | 16 | 40 | 8.0 | 16.1 | 0.00 | 0.00 | 0.00 | 52 | 1016.1 |
| 20260507010528 | 16 | 42 | 6.4 | 14.5 | 0.00 | 0.00 | 0.00 | 52 | 1016.2 |
| 20260507010041 | 16 | 43 | 6.4 | 20.9 | 0.00 | 0.00 | 0.00 | 52 | 1016.2 |
| 20260507005528 | 16 | 51 | 8.0 | 20.9 | 0.00 | 0.00 | 0.00 | 52 | 1016.1 |
| 20260507005028 | 16 | 46 | 6.4 | 19.3 | 0.00 | 0.00 | 0.00 | 53 | 1016.1 |
| 20260507004540 | 16 | 64 | 9.7 | 22.5 | 0.00 | 0.00 | 0.00 | 53 | 1016.2 |
| 20260507004029 | 16 | 62 | 11.3 | 22.5 | 0.00 | 0.00 | 0.00 | 53 | 1016.1 |
| 20260507003528 | 16 | 59 | 11.3 | 22.5 | 0.00 | 0.00 | 0.00 | 53 | 1016.1 |
| 20260507003038 | 16 | 18 | 6.4 | 17.7 | 0.00 | 0.00 | 0.00 | 53 | 1016.0 |
| 20260507002527 | 16 | 42 | 6.4 | 17.7 | 0.00 | 0.00 | 0.00 | 54 | 1016.0 |
| 20260507002027 | 16 | 38 | 9.7 | 19.3 | 0.00 | 0.00 | 0.00 | 54 | 1015.9 |
| 20260507001549 | 16 | 57 | 8.0 | 19.3 | 0.00 | 0.00 | 0.00 | 55 | 1015.9 |
| 20260507001029 | 16 | 48 | 8.0 | 19.3 | 0.00 | 0.00 | 0.00 | 55 | 1015.8 |
| 20260507000530 | 16 | 59 | 11.3 | 22.5 | 0.00 | 0.00 | 0.00 | 55 | 1015.9 |
| 20260507000037 | 16 | 61 | 9.7 | 22.5 | 0.00 | 0.00 | 0.00 | 55 | 1015.8 |
| 20260506235525 | 16 | 46 | 9.7 | 17.7 | 0.00 | 0.00 | 0.00 | 53 | 1015.7 |
| 20260506235026 | 17 | 46 | 8.0 | 20.9 | 0.00 | 0.00 | 0.00 | 53 | 1015.6 |
| 20260506234539 | 16 | 28 | 11.3 | 20.9 | 0.00 | 0.00 | 0.00 | 52 | 1015.6 |
| 20260506234028 | 17 | 65 | 9.7 | 20.9 | 0.00 | 0.00 | 0.00 | 53 | 1015.5 |
| 20260506233528 | 17 | 31 | 11.3 | 20.9 | 0.00 | 0.00 | 0.00 | 53 | 1015.5 |
| 20260506233045 | 17 | 53 | 12.9 | 20.9 | 0.00 | 0.00 | 0.00 | 53 | 1015.5 |
| 20260506232529 | 17 | 53 | 8.0 | 24.1 | 0.00 | 0.00 | 0.00 | 52 | 1015.4 |
| 20260506232027 | 17 | 44 | 11.3 | 24.1 | 0.00 | 0.00 | 0.00 | 52 | 1015.4 |
| 20260506231541 | 17 | 81 | 11.3 | 20.9 | 0.00 | 0.00 | 0.00 | 52 | 1015.3 |
| 20260506231028 | 17 | 50 | 9.7 | 20.9 | 0.00 | 0.00 | 0.00 | 53 | 1015.4 |
| 20260506230527 | 17 | 63 | 9.7 | 17.7 | 0.00 | 0.00 | 0.00 | 51 | 1015.4 |
| 20260506230039 | 17 | 40 | 8.0 | 19.3 | 0.00 | 0.00 | 0.00 | 51 | 1015.5 |
| 20260506225527 | 17 | 36 | 9.7 | 19.3 | 0.00 | 0.00 | 0.00 | 51 | 1015.4 |
| 20260506225029 | 17 | 43 | 12.9 | 19.3 | 0.00 | 0.00 | 0.00 | 52 | 1015.4 |
| 20260506224537 | 17 | 49 | 9.7 | 22.5 | 0.00 | 0.00 | 0.00 | 52 | 1015.3 |
| 20260506224027 | 17 | 55 | 12.9 | 25.7 | 0.00 | 0.00 | 0.00 | 51 | 1015.2 |
| 20260506223527 | 17 | 40 | 12.9 | 25.7 | 0.00 | 0.00 | 0.00 | 51 | 1015.2 |
| 20260506223053 | 17 | 51 | 9.7 | 24.1 | 0.00 | 0.00 | 0.00 | 51 | 1015.1 |
| 20260506222528 | 17 | 36 | 14.5 | 24.1 | 0.00 | 0.00 | 0.00 | 51 | 1015.1 |
| 20260506222028 | 17 | 17 | 9.7 | 24.1 | 0.00 | 0.00 | 0.00 | 51 | 1015.0 |
| 20260506221541 | 17 | 55 | 9.7 | 27.4 | 0.00 | 0.00 | 0.00 | 52 | 1015.1 |
| 20260506221028 | 17 | 19 | 16.1 | 27.4 | 0.00 | 0.00 | 0.00 | 52 | 1015.1 |
| 20260506220528 | 17 | 55 | 6.4 | 29.0 | 0.00 | 0.00 | 0.00 | 53 | 1015.0 |
| 20260506220043 | 17 | 37 | 16.1 | 29.0 | 0.00 | 0.00 | 0.00 | 52 | 1015.0 |
| 20260506215527 | 17 | 36 | 14.5 | 29.0 | 0.00 | 0.00 | 0.00 | 52 | 1015.0 |
| 20260506215027 | 16 | 65 | 9.7 | 29.0 | 0.00 | 0.00 | 0.00 | 54 | 1015.0 |
| 20260506214541 | 16 | 46 | 16.1 | 29.0 | 0.00 | 0.00 | 0.00 | 54 | 1015.1 |
| 20260506214028 | 16 | 69 | 16.1 | 27.4 | 0.00 | 0.00 | 0.00 | 54 | 1015.2 |
| 20260506213527 | 16 | 40 | 17.7 | 29.0 | 0.00 | 0.00 | 0.00 | 53 | 1015.1 |
| 20260506213039 | 16 | 42 | 16.1 | 29.0 | 0.00 | 0.00 | 0.00 | 53 | 1015.1 |
| 20260506212527 | 17 | 78 | 17.7 | 29.0 | 0.00 | 0.00 | 0.00 | 52 | 1015.1 |
| 20260506212027 | 17 | 41 | 12.9 | 27.4 | 0.00 | 0.00 | 0.00 | 52 | 1015.1 |
| 20260506211540 | 17 | 24 | 16.1 | 25.7 | 0.00 | 0.00 | 0.00 | 52 | 1015.1 |
| 20260506211028 | 17 | 47 | 16.1 | 25.7 | 0.00 | 0.00 | 0.00 | 52 | 1015.1 |
| 20260506210527 | 17 | 11 | 17.7 | 25.7 | 0.00 | 0.00 | 0.00 | 50 | 1015.1 |
| 20260506210040 | 17 | 44 | 12.9 | 25.7 | 0.00 | 0.00 | 0.00 | 51 | 1015.1 |
| 20260506205527 | 17 | 14 | 14.5 | 30.6 | 0.00 | 0.00 | 0.00 | 52 | 1015.1 |
| 20260506205028 | 17 | 29 | 17.7 | 30.6 | 0.00 | 0.00 | 0.00 | 52 | 1015.1 |
| 20260506204540 | 17 | 20 | 17.7 | 33.8 | 0.00 | 0.00 | 0.00 | 52 | 1015.3 |
| 20260506204027 | 17 | 24 | 16.1 | 33.8 | 0.00 | 0.00 | 0.00 | 51 | 1015.3 |
| 20260506203528 | 17 | 34 | 17.7 | 33.8 | 0.00 | 0.00 | 0.00 | 51 | 1015.2 |
| 20260506203044 | 17 | 360 | 14.5 | 32.2 | 0.00 | 0.00 | 0.00 | 51 | 1015.2 |
| 20260506202528 | 17 | 33 | 16.1 | 30.6 | 0.00 | 0.00 | 0.00 | 51 | 1015.4 |
| 20260506202028 | 17 | 9 | 19.3 | 30.6 | 0.00 | 0.00 | 0.00 | 51 | 1015.4 |
| 20260506201537 | 17 | 19 | 16.1 | 30.6 | 0.00 | 0.00 | 0.00 | 50 | 1015.4 |
| 20260506201028 | 18 | 17 | 16.1 | 27.4 | 0.00 | 0.00 | 0.00 | 50 | 1015.3 |
| 20260506200527 | 18 | 343 | 12.9 | 32.2 | 0.00 | 0.00 | 0.00 | 51 | 1015.2 |
| 20260506200054 | 17 | 360 | 16.1 | 32.2 | 0.00 | 0.00 | 0.00 | 50 | 1015.2 |
| 20260506195528 | 17 | 22 | 16.1 | 30.6 | 0.00 | 0.00 | 0.00 | 52 | 1015.2 |
| 20260506195030 | 17 | 74 | 17.7 | 29.0 | 0.00 | 0.00 | 0.00 | 51 | 1015.4 |
| 20260506194542 | 17 | 36 | 19.3 | 29.0 | 0.00 | 0.00 | 0.00 | 51 | 1015.3 |
| 20260506194028 | 17 | 29 | 19.3 | 27.4 | 0.00 | 0.00 | 0.00 | 50 | 1015.3 |
| 20260506193526 | 17 | 52 | 9.7 | 30.6 | 0.00 | 0.00 | 0.00 | 52 | 1015.1 |
| 20260506193044 | 17 | 53 | 14.5 | 30.6 | 0.00 | 0.00 | 0.00 | 51 | 1015.2 |
| 20260506192528 | 16 | 49 | 14.5 | 30.6 | 0.00 | 0.00 | 0.00 | 53 | 1015.4 |
| 20260506192028 | 16 | 20 | 20.9 | 30.6 | 0.00 | 0.00 | 0.00 | 53 | 1015.4 |
| 20260506191538 | 16 | 53 | 17.7 | 30.6 | 0.00 | 0.00 | 0.00 | 53 | 1015.3 |
| 20260506191028 | 16 | 42 | 12.9 | 29.0 | 0.00 | 0.00 | 0.00 | 54 | 1015.4 |
| 20260506190528 | 16 | 51 | 16.1 | 27.4 | 0.00 | 0.00 | 0.00 | 54 | 1015.5 |
| 20260506190037 | 16 | 24 | 14.5 | 30.6 | 0.00 | 0.00 | 0.00 | 54 | 1015.7 |
| 20260506185527 | 16 | 44 | 14.5 | 30.6 | 0.00 | 0.00 | 0.00 | 56 | 1015.6 |
| 20260506185027 | 16 | 65 | 17.7 | 30.6 | 0.00 | 0.00 | 0.00 | 55 | 1015.7 |
| 20260506184546 | 16 | 47 | 17.7 | 29.0 | 0.00 | 0.00 | 0.00 | 55 | 1015.7 |
| 20260506184027 | 16 | 51 | 14.5 | 27.4 | 0.00 | 0.00 | 0.00 | 55 | 1015.7 |
| 20260506183527 | 16 | 54 | 16.1 | 25.7 | 0.00 | 0.00 | 0.00 | 56 | 1015.8 |
| 20260506183041 | 16 | 80 | 14.5 | 27.4 | 0.00 | 0.00 | 0.00 | 54 | 1015.8 |
| 20260506182526 | 15 | 5 | 16.1 | 27.4 | 0.00 | 0.00 | 0.00 | 56 | 1015.9 |
| 20260506182026 | 15 | 57 | 12.9 | 25.7 | 0.00 | 0.00 | 0.00 | 57 | 1016.0 |
| 20260506181601 | 15 | 80 | 14.5 | 25.7 | 0.00 | 0.00 | 0.00 | 58 | 1016.0 |
| 20260506181027 | 15 | 82 | 14.5 | 27.4 | 0.00 | 0.00 | 0.00 | 58 | 1016.1 |
| 20260506180529 | 15 | 74 | 14.5 | 27.4 | 0.00 | 0.00 | 0.00 | 58 | 1016.3 |
| 20260506180046 | 15 | 65 | 12.9 | 32.2 | 0.00 | 0.00 | 0.00 | 58 | 1016.3 |
| 20260506175529 | 15 | 60 | 17.7 | 32.2 | 0.00 | 0.00 | 0.00 | 58 | 1016.3 |
| 20260506175026 | 15 | 105 | 20.9 | 32.2 | 0.00 | 0.00 | 0.00 | 58 | 1016.4 |
| 20260506174537 | 14 | 44 | 14.5 | 32.2 | 0.00 | 0.00 | 0.00 | 59 | 1016.4 |
| 20260506174026 | 14 | 113 | 17.7 | 30.6 | 0.00 | 0.00 | 0.00 | 58 | 1016.7 |
| 20260506173525 | 14 | 42 | 16.1 | 30.6 | 0.00 | 0.00 | 0.00 | 59 | 1016.8 |
| 20260506173045 | 14 | 82 | 19.3 | 33.8 | 0.00 | 0.00 | 0.00 | 59 | 1016.7 |
| 20260506172526 | 13 | 74 | 20.9 | 33.8 | 0.00 | 0.00 | 0.00 | 59 | 1016.8 |
| 20260506172030 | 13 | 61 | 19.3 | 33.8 | 0.00 | 0.00 | 0.00 | 59 | 1016.7 |
| 20260506171550 | 13 | 66 | 20.9 | 33.8 | 0.00 | 0.00 | 0.00 | 60 | 1016.7 |
| 20260506171027 | 13 | 51 | 16.1 | 29.0 | 0.00 | 0.00 | 0.00 | 61 | 1016.8 |
| 20260506170526 | 13 | 110 | 14.5 | 29.0 | 0.00 | 0.00 | 0.00 | 62 | 1016.8 |
| 20260506170041 | 13 | 79 | 16.1 | 27.4 | 0.00 | 0.00 | 0.00 | 61 | 1017.0 |
| 20260506165527 | 13 | 40 | 12.9 | 27.4 | 0.00 | 0.00 | 0.00 | 61 | 1016.9 |
| 20260506165027 | 13 | 51 | 14.5 | 29.0 | 0.00 | 0.00 | 0.00 | 62 | 1016.8 |
| 20260506164539 | 13 | 84 | 17.7 | 29.0 | 0.00 | 0.00 | 0.00 | 65 | 1017.0 |
| 20260506164026 | 13 | 59 | 16.1 | 25.7 | 0.00 | 0.00 | 0.00 | 64 | 1016.9 |
| 20260506163526 | 12 | 22 | 11.3 | 27.4 | 0.00 | 0.00 | 0.00 | 66 | 1017.0 |
| 20260506163046 | 12 | 33 | 16.1 | 29.0 | 0.00 | 0.00 | 0.00 | 65 | 1017.1 |
| 20260506162526 | 12 | 35 | 16.1 | 29.0 | 0.00 | 0.00 | 0.00 | 65 | 1017.2 |
| 20260506162026 | 12 | 57 | 12.9 | 30.6 | 0.00 | 0.00 | 0.00 | 66 | 1017.3 |
| 20260506161552 | 12 | 51 | 17.7 | 32.2 | 0.00 | 0.00 | 0.00 | 66 | 1017.1 |
| 20260506161026 | 12 | 74 | 17.7 | 35.4 | 0.00 | 0.00 | 0.00 | 67 | 1017.2 |
| 20260506160531 | 11 | 16 | 16.1 | 35.4 | 0.00 | 0.00 | 0.00 | 68 | 1017.2 |
| 20260506160043 | 11 | 51 | 19.3 | 30.6 | 0.00 | 0.00 | 0.00 | 68 | 1017.2 |
| 20260506155527 | 11 | 67 | 12.9 | 30.6 | 0.00 | 0.00 | 0.00 | 69 | 1017.0 |
| 20260506155029 | 11 | 54 | 16.1 | 30.6 | 0.00 | 0.00 | 0.00 | 69 | 1017.0 |
| 20260506154542 | 11 | 56 | 19.3 | 30.6 | 0.00 | 0.00 | 0.00 | 69 | 1017.0 |
| 20260506154028 | 11 | 59 | 17.7 | 32.2 | 0.00 | 0.00 | 0.00 | 70 | 1016.8 |
| 20260506153528 | 11 | 55 | 19.3 | 35.4 | 0.00 | 0.00 | 0.00 | 69 | 1016.9 |
| 20260506153042 | 11 | 88 | 20.9 | 35.4 | 0.00 | 0.00 | 0.00 | 69 | 1016.9 |
| 20260506152527 | 11 | 63 | 19.3 | 32.2 | 0.00 | 0.00 | 0.00 | 69 | 1016.7 |
| 20260506152029 | 11 | 67 | 17.7 | 33.8 | 0.00 | 0.00 | 0.00 | 70 | 1016.6 |
| 20260506151538 | 11 | 80 | 20.9 | 33.8 | 0.00 | 0.00 | 0.00 | 70 | 1016.5 |
| 20260506151027 | 11 | 59 | 16.1 | 32.2 | 0.00 | 0.00 | 0.00 | 71 | 1016.5 |
| 20260506150527 | 10 | 94 | 17.7 | 35.4 | 0.00 | 0.00 | 0.00 | 71 | 1016.6 |
| 20260506150042 | 10 | 61 | 19.3 | 35.4 | 0.00 | 0.00 | 0.00 | 71 | 1016.3 |
| 20260506145529 | 10 | 26 | 19.3 | 35.4 | 0.00 | 0.00 | 0.00 | 72 | 1016.3 |
| 20260506145028 | 10 | 53 | 20.9 | 37.0 | 0.00 | 0.00 | 0.00 | 72 | 1016.4 |
| 20260506144538 | 10 | 26 | 22.5 | 37.0 | 0.00 | 0.00 | 0.00 | 73 | 1016.2 |
| 20260506144030 | 10 | 30 | 22.5 | 37.0 | 0.00 | 0.00 | 0.00 | 74 | 1015.9 |
| 20260506143530 | 10 | 30 | 19.3 | 35.4 | 0.00 | 0.00 | 0.00 | 74 | 1015.8 |
| 20260506143039 | 10 | 41 | 22.5 | 35.4 | 0.00 | 0.00 | 0.00 | 74 | 1015.5 |
| 20260506142528 | 10 | 16 | 20.9 | 37.0 | 0.00 | 0.00 | 0.00 | 75 | 1015.5 |
| 20260506142027 | 10 | 22 | 20.9 | 37.0 | 0.00 | 0.00 | 0.00 | 75 | 1015.4 |
| 20260506141537 | 10 | 5 | 19.3 | 38.6 | 0.00 | 0.00 | 0.00 | 75 | 1015.8 |
| 20260506141027 | 9 | 36 | 20.9 | 38.6 | 0.00 | 0.00 | 0.00 | 75 | 1015.7 |
| 20260506140527 | 9 | 66 | 17.7 | 37.0 | 0.00 | 0.00 | 0.00 | 76 | 1015.8 |
| 20260506140043 | 9 | 47 | 22.5 | 33.8 | 0.00 | 0.00 | 0.00 | 76 | 1015.8 |
| 20260506135535 | 9 | 36 | 20.9 | 33.8 | 0.00 | 0.00 | 0.00 | 76 | 1015.8 |
| 20260506135029 | 9 | 21 | 17.7 | 35.4 | 0.00 | 0.00 | 0.00 | 76 | 1015.8 |
| 20260506134609 | 9 | 27 | 16.1 | 35.4 | 0.00 | 0.00 | 0.00 | 77 | 1015.9 |
| 20260506134027 | 9 | 46 | 22.5 | 35.4 | 0.00 | 0.00 | 0.00 | 77 | 1015.7 |
| 20260506133528 | 9 | 28 | 16.1 | 29.0 | 0.00 | 0.00 | 0.00 | 77 | 1015.8 |
| 20260506133040 | 9 | 42 | 12.9 | 30.6 | 0.00 | 0.00 | 0.00 | 77 | 1016.0 |
| 20260506132528 | 9 | 33 | 20.9 | 30.6 | 0.00 | 0.00 | 0.00 | 77 | 1016.2 |
| 20260506132028 | 9 | 24 | 14.5 | 30.6 | 0.00 | 0.00 | 0.00 | 77 | 1016.2 |
| 20260506131553 | 8 | 19 | 17.7 | 32.2 | 0.00 | 0.00 | 0.00 | 77 | 1016.1 |
| 20260506131030 | 8 | 22 | 17.7 | 32.2 | 0.00 | 0.00 | 0.00 | 77 | 1016.0 |
| 20260506130532 | 8 | 5 | 19.3 | 33.8 | 0.00 | 0.00 | 0.00 | 77 | 1015.9 |
| 20260506130038 | 8 | 352 | 16.1 | 33.8 | 0.00 | 0.00 | 0.00 | 77 | 1015.7 |
| 20260506125530 | 8 | 5 | 16.1 | 32.2 | 0.00 | 0.00 | 0.00 | 77 | 1015.8 |
| 20260506125029 | 8 | 22 | 16.1 | 27.4 | 0.00 | 0.00 | 0.00 | 77 | 1015.5 |
| 20260506124538 | 8 | 11 | 14.5 | 30.6 | 0.00 | 0.00 | 0.00 | 77 | 1015.4 |
| 20260506124030 | 8 | 55 | 14.5 | 30.6 | 0.00 | 0.00 | 0.00 | 76 | 1015.1 |
| 20260506123528 | 8 | 18 | 17.7 | 30.6 | 0.00 | 0.00 | 0.00 | 76 | 1015.2 |
| 20260506123043 | 8 | 25 | 14.5 | 25.7 | 0.00 | 0.00 | 0.00 | 76 | 1015.2 |
| 20260506122527 | 8 | 32 | 14.5 | 22.5 | 0.00 | 0.00 | 0.00 | 76 | 1014.9 |
| 20260506122028 | 8 | 36 | 9.7 | 27.4 | 0.00 | 0.00 | 0.00 | 76 | 1014.9 |
| 20260506121541 | 8 | 352 | 14.5 | 27.4 | 0.00 | 0.00 | 0.00 | 76 | 1014.7 |
| 20260506121029 | 8 | 40 | 16.1 | 25.7 | 0.00 | 0.00 | 0.00 | 76 | 1014.7 |
| 20260506120530 | 8 | 29 | 12.9 | 29.0 | 0.00 | 0.00 | 0.00 | 76 | 1014.8 |
| 20260506120040 | 8 | 34 | 17.7 | 29.0 | 0.00 | 0.00 | 0.00 | 76 | 1014.7 |
| 20260506115528 | 8 | 11 | 14.5 | 25.7 | 0.00 | 0.00 | 0.00 | 76 | 1014.7 |
| 20260506115029 | 8 | 28 | 12.9 | 24.1 | 0.00 | 0.00 | 0.00 | 76 | 1014.5 |
| 20260506114545 | 8 | 11 | 12.9 | 24.1 | 0.00 | 0.00 | 0.00 | 76 | 1014.5 |
| 20260506114027 | 8 | 12 | 11.3 | 22.5 | 0.00 | 0.00 | 0.00 | 76 | 1014.5 |
| 20260506113527 | 8 | 19 | 11.3 | 25.7 | 0.00 | 0.00 | 0.00 | 76 | 1014.4 |
| 20260506113040 | 8 | 28 | 12.9 | 32.2 | 0.00 | 0.00 | 0.00 | 76 | 1014.3 |
| 20260506112527 | 8 | 21 | 16.1 | 32.2 | 0.00 | 0.00 | 0.00 | 76 | 1014.0 |
| 20260506112027 | 8 | 34 | 14.5 | 29.0 | 0.00 | 0.00 | 0.00 | 76 | 1014.0 |
| 20260506111552 | 8 | 36 | 17.7 | 29.0 | 0.00 | 0.00 | 0.00 | 76 | 1014.0 |
| 20260506111030 | 8 | 24 | 14.5 | 32.2 | 0.00 | 0.00 | 0.00 | 76 | 1014.1 |
| 20260506110528 | 8 | 352 | 11.3 | 32.2 | 0.00 | 0.00 | 0.00 | 75 | 1014.3 |
| 20260506110041 | 8 | 28 | 14.5 | 29.0 | 0.00 | 0.00 | 0.00 | 75 | 1014.2 |
| 20260506105530 | 8 | 348 | 14.5 | 29.0 | 0.00 | 0.00 | 0.00 | 75 | 1014.3 |
| 20260506105030 | 8 | 5 | 16.1 | 29.0 | 0.00 | 0.00 | 0.00 | 75 | 1014.6 |
| 20260506104541 | 8 | 332 | 12.9 | 29.0 | 0.00 | 0.00 | 0.00 | 74 | 1014.5 |
| 20260506104027 | 8 | 15 | 14.5 | 29.0 | 0.00 | 0.00 | 0.00 | 74 | 1014.7 |
| 20260506103528 | 8 | 345 | 16.1 | 27.4 | 0.00 | 0.00 | 0.00 | 74 | 1014.4 |
| 20260506103038 | 8 | 35 | 14.5 | 25.7 | 0.00 | 0.00 | 0.00 | 73 | 1014.1 |
| 20260506102530 | 9 | 352 | 12.9 | 25.7 | 0.00 | 0.00 | 0.00 | 73 | 1014.2 |
| 20260506102028 | 9 | 19 | 16.1 | 30.6 | 0.00 | 0.00 | 0.00 | 72 | 1014.3 |
| 20260506101537 | 9 | 9 | 14.5 | 30.6 | 0.00 | 0.00 | 0.00 | 72 | 1014.4 |
| 20260506101027 | 9 | 10 | 16.1 | 30.6 | 0.00 | 0.00 | 0.00 | 72 | 1014.3 |
| 20260506100529 | 9 | 360 | 14.5 | 27.4 | 0.00 | 0.00 | 0.00 | 72 | 1014.4 |
| 20260506100038 | 9 | 17 | 12.9 | 30.6 | 0.00 | 0.00 | 0.00 | 72 | 1014.4 |
| 20260506095531 | 9 | 38 | 16.1 | 30.6 | 0.00 | 0.00 | 0.00 | 71 | 1014.2 |
| 20260506095029 | 9 | 5 | 12.9 | 22.5 | 0.00 | 0.00 | 0.00 | 71 | 1014.2 |
| 20260506094543 | 9 | 28 | 12.9 | 29.0 | 0.00 | 0.00 | 0.00 | 71 | 1014.1 |
| 20260506094032 | 9 | 11 | 12.9 | 29.0 | 0.00 | 0.00 | 0.00 | 71 | 1014.0 |
| 20260506093527 | 9 | 17 | 14.5 | 29.0 | 0.00 | 0.00 | 0.00 | 71 | 1014.0 |
| 20260506093043 | 9 | 30 | 16.1 | 27.4 | 0.00 | 0.00 | 0.00 | 72 | 1013.9 |
| 20260506092529 | 9 | 23 | 12.9 | 27.4 | 0.00 | 0.00 | 0.00 | 72 | 1013.9 |
| 20260506092027 | 9 | 14 | 16.1 | 25.7 | 0.00 | 0.00 | 0.00 | 72 | 1014.1 |
| 20260506091540 | 9 | 33 | 11.3 | 20.9 | 0.00 | 0.00 | 0.00 | 72 | 1014.0 |
| 20260506091027 | 9 | 346 | 11.3 | 30.6 | 0.00 | 0.00 | 0.00 | 72 | 1013.8 |
| 20260506090527 | 9 | 33 | 17.7 | 32.2 | 0.00 | 0.00 | 0.00 | 72 | 1013.8 |
| 20260506090040 | 9 | 32 | 17.7 | 32.2 | 0.00 | 0.00 | 0.00 | 72 | 1013.7 |
| 20260506085529 | 9 | 15 | 17.7 | 30.6 | 0.00 | 0.00 | 0.00 | 72 | 1013.7 |
| 20260506085027 | 9 | 34 | 12.9 | 22.5 | 0.00 | 0.00 | 0.00 | 73 | 1013.6 |
| 20260506084537 | 9 | 14 | 11.3 | 22.5 | 0.00 | 0.00 | 0.00 | 73 | 1013.5 |
| 20260506084027 | 9 | 9 | 14.5 | 22.5 | 0.00 | 0.00 | 0.00 | 72 | 1013.5 |
| 20260506083530 | 9 | 355 | 9.7 | 24.1 | 0.00 | 0.00 | 0.00 | 72 | 1013.5 |
| 20260506083037 | 9 | 360 | 9.7 | 29.0 | 0.00 | 0.00 | 0.00 | 72 | 1013.3 |
| 20260506082530 | 9 | 27 | 14.5 | 29.0 | 0.00 | 0.00 | 0.00 | 72 | 1013.3 |
| 20260506082033 | 9 | 12 | 17.7 | 29.0 | 0.00 | 0.00 | 0.00 | 72 | 1013.0 |
| 20260506081548 | 9 | 20 | 16.1 | 27.4 | 0.00 | 0.00 | 0.00 | 72 | 1012.7 |
| 20260506081030 | 9 | 28 | 16.1 | 29.0 | 0.00 | 0.00 | 0.00 | 72 | 1012.6 |
| 20260506080529 | 9 | 44 | 12.9 | 29.0 | 0.00 | 0.00 | 0.00 | 72 | 1012.1 |
| 20260506073528 | 9 | 51 | 14.5 | 33.8 | 0.00 | 0.00 | 0.00 | 71 | 1011.9 |
| 20260506073038 | 9 | 32 | 12.9 | 33.8 | 0.00 | 0.00 | 0.00 | 71 | 1011.8 |
| 20260506072526 | 9 | 29 | 19.3 | 33.8 | 0.00 | 0.00 | 0.00 | 71 | 1011.6 |
| 20260506072031 | 9 | 352 | 14.5 | 25.7 | 0.00 | 0.00 | 0.00 | 71 | 1011.7 |
| 20260506071538 | 9 | 5 | 11.3 | 25.7 | 0.00 | 0.00 | 0.00 | 71 | 1011.8 |
| 20260506071029 | 9 | 22 | 14.5 | 25.7 | 0.00 | 0.00 | 0.00 | 71 | 1012.0 |
| 20260506070528 | 9 | 57 | 14.5 | 27.4 | 0.00 | 0.00 | 0.00 | 71 | 1012.2 |
| 20260506062028 | 9 | 49 | 16.1 | 29.0 | 0.00 | 0.00 | 0.00 | 73 | 1012.2 |
| 20260506061541 | 9 | 69 | 16.1 | 29.0 | 0.00 | 0.00 | 0.00 | 74 | 1012.2 |
| 20260506061030 | 9 | 32 | 12.9 | 27.4 | 0.00 | 0.00 | 0.00 | 74 | 1012.2 |
| 20260506060528 | 9 | 17 | 12.9 | 27.4 | 0.00 | 0.00 | 0.00 | 75 | 1012.3 |
| 20260506051027 | 9 | 38 | 14.5 | 27.4 | 0.00 | 0.00 | 0.00 | 78 | 1011.9 |
| 20260506050527 | 9 | 28 | 12.9 | 27.4 | 0.00 | 0.00 | 0.00 | 79 | 1012.1 |
| 20260506045027 | 9 | 51 | 12.9 | 38.6 | 0.00 | 0.00 | 0.00 | 79 | 1012.1 |
| 20260506044543 | 9 | 17 | 19.3 | 38.6 | 0.00 | 0.00 | 0.00 | 79 | 1012.1 |
| 20260506044029 | 9 | 36 | 14.5 | 27.4 | 0.00 | 0.00 | 0.00 | 80 | 1012.1 |
| 20260506043529 | 9 | 28 | 14.5 | 32.2 | 0.00 | 0.00 | 0.00 | 80 | 1012.2 |
| 20260506043042 | 9 | 24 | 19.3 | 32.2 | 0.00 | 0.00 | 0.00 | 80 | 1012.0 |
| 20260506042529 | 9 | 34 | 11.3 | 32.2 | 0.00 | 0.00 | 0.00 | 81 | 1012.2 |
| 20260506042029 | 9 | 46 | 17.7 | 32.2 | 0.00 | 0.00 | 0.00 | 81 | 1012.3 |
| 20260506041540 | 9 | 30 | 16.1 | 32.2 | 0.00 | 0.00 | 0.00 | 81 | 1012.2 |
| 20260506041029 | 9 | 13 | 14.5 | 27.4 | 0.00 | 0.00 | 0.00 | 81 | 1012.2 |
| 20260506040527 | 9 | 55 | 14.5 | 30.6 | 0.00 | 0.00 | 0.00 | 81 | 1012.4 |
| 20260506040040 | 9 | 38 | 14.5 | 30.6 | 0.00 | 0.00 | 0.00 | 81 | 1012.3 |
| 20260506035528 | 9 | 43 | 16.1 | 30.6 | 0.00 | 0.00 | 0.00 | 82 | 1012.0 |
| 20260506035028 | 9 | 346 | 12.9 | 22.5 | 0.00 | 0.00 | 0.00 | 82 | 1012.0 |
| 20260506034541 | 9 | 38 | 11.3 | 24.1 | 0.00 | 0.00 | 0.00 | 82 | 1012.0 |
| 20260506034028 | 9 | 43 | 11.3 | 25.7 | 0.00 | 0.00 | 0.00 | 82 | 1012.0 |
| 20260506033531 | 9 | 26 | 16.1 | 25.7 | 0.00 | 0.00 | 0.00 | 81 | 1012.0 |
| 20260506033044 | 9 | 34 | 14.5 | 25.7 | 0.00 | 0.00 | 0.00 | 81 | 1012.0 |
| 20260506032528 | 9 | 5 | 14.5 | 25.7 | 0.00 | 0.00 | 0.00 | 81 | 1011.9 |
| 20260506032027 | 9 | 9 | 16.1 | 27.4 | 0.00 | 0.00 | 0.00 | 80 | 1011.8 |
| 20260506031541 | 9 | 49 | 14.5 | 32.2 | 0.00 | 0.00 | 0.00 | 80 | 1011.8 |
| 20260506031032 | 9 | 27 | 17.7 | 32.2 | 0.00 | 0.00 | 0.00 | 80 | 1011.4 |
| 20260506030529 | 9 | 45 | 9.7 | 27.4 | 0.00 | 0.00 | 0.00 | 80 | 1011.3 |
| 20260506030039 | 9 | 25 | 16.1 | 30.6 | 0.00 | 0.00 | 0.00 | 80 | 1011.4 |
| 20260506025532 | 9 | 41 | 17.7 | 30.6 | 0.00 | 0.00 | 0.00 | 79 | 1011.4 |
| 20260506025027 | 9 | 44 | 16.1 | 29.0 | 0.00 | 0.00 | 0.00 | 79 | 1011.5 |
| 20260506024547 | 9 | 5 | 12.9 | 29.0 | 0.00 | 0.00 | 0.00 | 79 | 1011.3 |
| 20260506024029 | 9 | 17 | 17.7 | 29.0 | 0.00 | 0.00 | 0.00 | 79 | 1011.1 |
| 20260506023527 | 9 | 31 | 17.7 | 35.4 | 0.00 | 0.00 | 0.00 | 79 | 1010.9 |